Regional Weather Roundup
Issued by NWS

Home | Current Version | Previous Version | Graphics & Text | Print | Product List | Glossary On
Versions: 1 2 3 4 5 6 7 8 9 10 11 12 13 14 15 16 17 18 19 20 21 22 23 24 25 26 27 28 29 30 31 32 33 34 35 36 37 38 39 40 41 42 43 44 45 46 47 48 49 50
000
ASUS43 KFSD 252110
RWRSD

WEATHER ROUNDUP FOR SOUTH DAKOTA
NATIONAL WEATHER SERVICE SIOUX FALLS SD
300 PM CST SUN JAN 25 2015

NOTE: "FAIR" INDICATES FEW OR NO CLOUDS BELOW 12,000 FEET WITH NO
SIGNIFICANT WEATHER AND/OR OBSTRUCTIONS TO VISIBILITY.


SDZ001>005-009-010-012>017-252200-
NORTHWEST AND NORTH CENTRAL SOUTH DAKOTA

CITY           SKY/WX    TMP DP  RH WIND       PRES   REMARKS
BUFFALO          N/A     48  28  46 SW14      29.86F
FAITH            N/A     45  25  45 SW7       29.96F
MOBRIDGE       CLOUDY    40  31  70 W7        29.96F
$$

SDZ012>016-024>037-041>051-057-063-072>074-252200-
SOUTHWEST AND SOUTH CENTRAL SOUTH DAKOTA

CITY           SKY/WX    TMP DP  RH WIND       PRES   REMARKS
RAPID CTY ARPT CLOUDY    49  20  31 S8        29.97F
PIERRE         PTSUNNY   41  28  60 NW9       30.01S
CUSTER         CLOUDY    42  27  55 W10G21    29.99F
ELLSWORTH AFB  CLOUDY    49  20  32 S10       29.96F
PHILIP         SUNNY     48  26  42 VRB7      29.99F
PINE RIDGE     CLOUDY    48  29  47 W12       30.01F
SPEARFISH      FAIR      50  32  50 W14G24    29.97S
WINNER         CLOUDY    42  30  62 NW8       30.03S
$$

SDZ004>011-016>023-039-040-252200-
NORTHEAST SOUTH DAKOTA

CITY           SKY/WX    TMP DP  RH WIND       PRES   REMARKS
ABERDEEN       CLOUDY    31  24  75 CALM      30.03S
WATERTOWN      PTSUNNY   30  23  75 W5        30.00S WCI  25
SISSETON         N/A     27  20  75 N3        30.02S
$$

SDZ017-020-022-023-036>040-048>070-252200-
SOUTHEAST SOUTH DAKOTA

CITY           SKY/WX    TMP DP  RH WIND       PRES   REMARKS
SIOUX FALLS    CLOUDY    34  30  85 N8        30.02R WCI  27
HURON          CLOUDY    34  29  82 NW3       30.03S
CHAMBERLAIN    CLOUDY    38  33  82 NW6       30.02S
MITCHELL       CLOUDY    36  31  82 NW6       30.05R
YANKTON        CLOUDY    36  30  80 NW7       30.05R
$$

ABBREVIATIONS USED IN REMARKS
   TC - TEMPERATURE IN CELSIUS
  WCI - WIND CHILL INDEX
   HX - HEAT INDEX
  VSB - VISIBILITY




USA.gov is the U.S. government's official web portal to all federal, state and local government web resources and services.